Location: DARK SKY Beskydy - Park tmavé oblohy, www.darkskybeskydy.cz
(49.4926°N, 18.5016°E)
Time: 04:24:36
(UTC+02:00)

A-11 Canister half - Pass Details

Date: 27 February 2024
Orbit: 1513 x 1686 km, 47.2° (Epoch: 24 April)

Event Time Altitude Azimuth Distance (km) Brightness Sun altitude
Rises 08:58:56 0° 287° (WNW) 4,862 11.1 20.0°
Reaches altitude 10° 09:03:42 10° 268° (W) 3,837 10.8 20.6°
Maximum altitude 09:08:55 16° 235° (SW) 3,333 10.8 21.2°
Drops below altitude 10° 09:14:04 10° 201° (SSW) 3,751 11.4 21.8°
Sets 09:18:41 0° 182° (S) 4,699 12.2 22.3°
